Date Time,Air Temp,Sky Temp,Clarity,Light Level,Rain Sensor,Readings
2010-12-03 00:01:54,12.1,-17.0,29.1,0.3,2.3,112
2010-12-03 00:06:54,12.1,-18.9,31.0,0.3,2.3,111
2010-12-03 00:11:54,11.9,-19.6,31.5,0.3,2.3,112
2010-12-03 00:16:54,11.9,-20.8,32.6,0.3,2.3,112
2010-12-03 00:21:54,11.8,-22.7,34.5,0.2,2.2,111
2010-12-03 00:26:54,11.8,-24.3,36.2,0.2,2.3,111
2010-12-03 00:31:54,11.9,-26.2,38.1,0.2,2.3,112
2010-12-03 00:36:54,11.9,-27.7,39.6,0.1,2.2,111
2010-12-03 00:41:54,11.8,-28.7,40.5,0.1,2.2,112
2010-12-03 00:46:54,11.7,-29.2,40.9,0.1,2.1,111
2010-12-03 00:51:54,11.7,-29.3,41.0,0.1,2.1,112
2010-12-03 00:56:54,11.6,-29.2,40.8,0.1,2.1,111
2010-12-03 01:01:54,11.4,-29.4,40.8,0.1,2.1,111
2010-12-03 01:06:54,11.3,-29.4,40.7,0.1,2.3,111
2010-12-03 01:11:54,11.2,-29.9,41.1,0.1,2.4,112
2010-12-03 01:16:54,11.2,-30.4,41.6,0.0,2.4,111
2010-12-03 01:21:54,11.3,-30.6,41.9,0.0,2.4,111
2010-12-03 01:26:54,11.3,-30.8,42.1,0.0,2.4,112
2010-12-03 01:31:54,11.2,-30.9,42.1,0.0,2.3,111
2010-12-03 01:36:54,11.1,-30.8,42.0,0.0,2.4,111
2010-12-03 01:41:54,11.0,-30.9,41.9,0.0,2.3,112
2010-12-03 01:46:54,10.9,-31.4,42.3,0.0,2.3,111
2010-12-03 01:51:54,10.9,-31.6,42.4,0.0,2.3,112
2010-12-03 01:56:54,10.6,-31.9,42.5,0.0,2.3,111
2010-12-03 02:01:54,10.6,-32.0,42.5,0.0,2.3,112
2010-12-03 02:06:54,10.6,-31.5,42.1,0.0,2.3,111
2010-12-03 02:11:54,10.6,-31.5,42.1,0.0,2.3,111
2010-12-03 02:16:54,10.5,-31.9,42.5,0.0,2.3,112
2010-12-03 02:21:54,10.4,-32.0,42.4,0.0,2.3,111
2010-12-03 02:26:54,10.4,-32.1,42.5,0.0,2.3,111
2010-12-03 02:31:54,10.4,-32.0,42.4,0.0,2.3,112
2010-12-03 02:36:54,10.4,-31.9,42.3,0.0,2.3,112
2010-12-03 02:41:54,10.4,-32.4,42.8,0.0,2.3,111
2010-12-03 02:46:54,10.3,-32.6,42.9,0.0,2.3,111
2010-12-03 02:51:54,10.0,-32.5,42.5,0.0,2.3,111
2010-12-03 02:56:54,9.9,-32.7,42.6,0.0,2.3,112
2010-12-03 03:01:54,9.9,-32.4,42.3,0.0,2.3,112
2010-12-03 03:06:54,10.1,-32.4,42.5,0.0,2.3,110
2010-12-03 03:11:54,10.3,-32.3,42.6,0.0,2.3,112
2010-12-03 03:16:54,10.3,-32.3,42.6,0.0,2.3,111
2010-12-03 03:21:54,10.2,-32.9,43.1,0.0,2.3,111
2010-12-03 03:26:54,10.4,-32.9,43.3,0.0,2.3,112
2010-12-03 03:31:54,10.5,-32.9,43.4,0.0,2.3,111
2010-12-03 03:36:54,10.6,-32.5,43.1,0.0,2.3,112
2010-12-03 03:41:54,10.4,-32.7,43.2,0.0,2.3,111
2010-12-03 03:46:54,10.4,-33.0,43.4,0.0,2.3,111
2010-12-03 03:51:54,10.4,-33.1,43.5,0.0,2.3,111
2010-12-03 03:56:54,10.5,-32.9,43.4,0.0,2.3,112
2010-12-03 04:01:54,10.7,-32.7,43.3,0.0,2.3,111
2010-12-03 04:06:54,10.6,-32.5,43.1,0.0,2.3,111
2010-12-03 04:11:54,10.5,-32.5,43.1,0.0,2.3,112
2010-12-03 04:16:54,10.5,-32.5,43.0,0.0,2.3,111
2010-12-03 04:21:54,10.5,-32.4,42.9,0.0,2.3,112
2010-12-03 04:26:54,10.6,-32.2,42.8,0.0,2.3,111
2010-12-03 04:31:54,10.5,-32.4,42.9,0.0,2.3,112
2010-12-03 04:36:54,10.3,-32.3,42.5,0.0,2.3,112
2010-12-03 04:41:54,10.1,-32.2,42.3,0.0,2.3,111
2010-12-03 04:46:54,10.0,-32.0,42.0,0.0,2.4,111
2010-12-03 04:51:54,10.1,-32.0,42.1,0.0,2.4,112
2010-12-03 04:56:54,10.1,-31.8,41.9,0.0,2.6,111
2010-12-03 05:01:54,10.2,-31.9,42.1,0.0,2.7,111
2010-12-03 05:06:54,10.2,-31.6,41.8,0.0,2.7,112
2010-12-03 05:11:54,10.1,-32.0,42.1,0.0,2.7,111
2010-12-03 05:16:54,10.2,-32.0,42.1,0.0,2.7,111
2010-12-03 05:21:54,10.4,-31.1,41.6,0.0,2.5,111
2010-12-03 05:26:54,10.4,-31.6,42.0,0.0,2.5,112
2010-12-03 05:31:54,10.4,-31.8,42.1,0.0,2.6,111
2010-12-03 05:36:54,10.2,-32.5,42.8,0.0,2.7,111
2010-12-03 05:41:54,10.2,-32.9,43.1,0.0,2.7,111
2010-12-03 05:46:54,10.2,-32.4,42.6,0.0,2.7,112
2010-12-03 05:51:54,10.1,-32.3,42.3,0.0,2.7,111
2010-12-03 05:56:54,9.9,-32.5,42.3,0.0,2.7,111
2010-12-03 06:01:54,9.4,-32.6,41.9,0.0,2.6,111
2010-12-03 06:06:54,9.3,-32.7,42.0,0.0,2.4,112
2010-12-03 06:11:54,9.2,-32.4,41.5,0.0,2.3,111
2010-12-03 06:16:54,9.0,-32.0,41.0,0.0,2.2,112
2010-12-03 06:21:54,9.0,-32.0,41.1,0.0,2.3,111
2010-12-03 06:26:54,9.1,-32.3,41.5,0.0,2.3,112
2010-12-03 06:31:54,9.1,-32.3,41.4,0.1,2.2,111
2010-12-03 06:36:54,8.9,-32.3,41.2,0.1,2.0,111
2010-12-03 06:41:54,9.1,-32.3,41.4,0.2,1.9,112
2010-12-03 06:46:54,9.4,-32.4,41.8,0.4,2.1,111
2010-12-03 06:51:54,9.7,-32.1,41.8,0.8,2.3,112
2010-12-03 06:56:54,9.9,-32.0,42.0,1.4,2.4,111
2010-12-03 07:01:54,10.2,-31.7,41.9,2.5,2.7,111
2010-12-03 07:06:54,9.8,-35.9,45.7,4.5,2.6,112
2010-12-03 07:11:54,9.0,-31.0,40.0,8.4,2.3,111
2010-12-03 07:16:54,8.8,-22.7,31.5,13.7,2.0,112
2010-12-03 07:21:54,8.7,-20.5,29.2,18.7,2.0,111
2010-12-03 07:26:54,8.6,-18.9,27.5,23.1,2.2,112
2010-12-03 07:31:54,8.7,-19.9,28.6,26.4,2.2,111
2010-12-03 07:36:54,8.9,-18.6,27.5,28.3,2.1,111
2010-12-03 07:41:54,9.3,-16.4,25.7,29.6,2.3,112
2010-12-03 07:46:54,9.5,-15.0,24.5,30.4,2.6,112
2010-12-03 07:51:54,9.8,-14.4,24.1,30.9,2.7,112
2010-12-03 07:56:54,9.8,-15.1,24.9,31.3,2.6,111
2010-12-03 08:01:54,9.9,-16.3,26.2,31.5,2.5,112
2010-12-03 08:06:55,10.0,-20.0,30.0,31.7,2.7,111
2010-12-03 08:11:55,10.1,-24.7,34.8,31.8,2.4,112
2010-12-03 08:16:55,10.1,-15.7,25.8,31.9,2.4,111
2010-12-03 08:21:55,10.4,-13.0,23.4,32.0,2.4,112
2010-12-03 08:26:55,10.5,-11.4,21.8,32.0,2.3,111
2010-12-03 08:31:55,10.7,-11.6,22.3,32.2,2.4,111
2010-12-03 08:36:55,11.0,-11.3,22.3,32.3,2.3,112
2010-12-03 08:41:55,11.3,-10.5,21.8,32.4,2.3,111
2010-12-03 08:46:55,11.4,-12.5,24.0,32.4,2.3,112
2010-12-03 08:51:55,11.3,-12.3,23.7,32.4,2.3,111
2010-12-03 08:56:55,11.5,-11.8,23.3,32.4,2.3,111
2010-12-03 09:01:55,11.7,-13.1,24.8,32.4,2.3,112
2010-12-03 09:06:55,11.7,-13.3,25.1,32.5,2.3,111
2010-12-03 09:11:55,11.7,-11.7,23.4,32.5,2.3,111
2010-12-03 09:16:55,11.8,-11.5,23.3,32.5,2.3,112
2010-12-03 09:21:55,11.5,-12.3,23.9,32.5,2.3,111
2010-12-03 09:26:55,11.4,-12.7,24.2,32.5,2.3,112
2010-12-03 09:31:55,11.4,-11.9,23.3,32.5,2.3,111
2010-12-03 09:36:55,11.6,-12.9,24.6,32.5,2.3,112
2010-12-03 09:41:55,12.0,-15.3,27.2,32.5,2.2,111
2010-12-03 09:46:55,12.2,-16.6,28.8,32.5,2.1,112
2010-12-03 09:51:55,12.4,-18.0,30.5,32.5,2.2,111
2010-12-03 09:56:55,12.4,-20.8,33.3,32.5,2.3,112
2010-12-03 10:01:55,12.3,-16.7,29.0,32.5,2.1,111
2010-12-03 10:06:55,12.3,-13.7,26.0,32.5,2.1,112
2010-12-03 10:11:55,12.6,-15.7,28.3,32.5,2.3,111
2010-12-03 10:16:55,12.7,-16.8,29.5,32.5,2.3,112
2010-12-03 10:21:55,12.9,-17.6,30.5,32.5,2.3,111
2010-12-03 10:26:55,13.2,-15.8,29.0,32.5,2.4,112
2010-12-03 10:31:55,13.5,-20.4,33.9,32.5,2.6,111
2010-12-03 10:36:55,13.5,-18.9,32.4,32.5,2.3,112
2010-12-03 10:41:55,13.4,-18.2,31.6,32.5,2.3,111
2010-12-03 10:46:55,13.3,-19.7,33.0,32.5,2.3,112
2010-12-03 10:51:55,13.0,-19.7,32.7,32.5,2.4,111
2010-12-03 10:56:55,12.8,-16.0,28.8,32.6,2.7,112
2010-12-03 11:01:55,12.9,-18.3,31.2,32.5,2.7,111
2010-12-03 11:06:55,13.0,-15.9,28.8,32.6,2.6,112
2010-12-03 11:11:55,13.0,-16.3,29.3,32.6,2.4,111
2010-12-03 11:16:55,12.7,-18.1,30.8,32.6,2.6,111
2010-12-03 11:21:55,12.5,-19.9,32.4,32.6,2.5,112
2010-12-03 11:26:55,12.2,-17.6,29.9,32.6,2.3,111
2010-12-03 11:31:55,12.5,-13.0,25.5,32.6,2.4,112
2010-12-03 11:36:55,13.4,-16.6,30.0,32.6,2.4,111
2010-12-03 11:41:55,14.0,-18.0,32.0,32.6,2.3,111
2010-12-03 11:46:55,14.0,-12.3,26.3,32.6,2.3,112
2010-12-03 11:51:55,13.9,-11.1,25.0,32.6,2.3,112
2010-12-03 11:56:55,14.0,-10.9,24.9,32.6,2.3,112
2010-12-03 12:01:55,14.1,-13.8,27.9,32.5,2.4,111
2010-12-03 12:06:55,13.7,-13.6,27.3,32.5,2.3,112
2010-12-03 12:11:55,13.4,-11.7,25.2,32.6,2.3,111
2010-12-03 12:16:55,13.4,-16.2,29.6,32.5,2.3,111
2010-12-03 12:21:55,12.7,-21.6,34.3,32.6,2.3,112
2010-12-03 12:26:55,12.6,-21.6,34.2,32.6,2.4,111
2010-12-03 12:31:55,12.7,-25.0,37.7,32.6,2.5,112
2010-12-03 12:36:55,12.8,-24.3,37.1,32.6,2.5,111
2010-12-03 12:41:55,12.8,-25.2,38.0,32.6,2.4,111
2010-12-03 12:46:55,13.0,-26.2,39.2,32.6,2.5,112
2010-12-03 12:51:55,13.5,-27.9,41.4,32.6,2.3,111
2010-12-03 12:56:55,14.0,-31.2,45.2,32.6,2.3,111
2010-12-03 13:01:55,14.6,-29.9,44.5,32.6,2.4,112
2010-12-03 13:06:55,14.9,-31.6,46.4,32.6,2.3,111
2010-12-03 13:11:55,14.9,-32.0,46.9,32.6,2.3,111
2010-12-03 13:16:55,15.3,-30.5,45.8,32.6,2.3,111
2010-12-03 13:21:55,15.7,-28.6,44.4,32.6,2.3,111
2010-12-03 13:26:55,16.0,-29.4,45.3,32.6,2.1,112
2010-12-03 13:31:55,16.4,-27.9,44.3,32.6,1.8,111
2010-12-03 13:36:55,16.8,-29.7,46.5,32.6,2.2,111
2010-12-03 13:41:55,16.8,-30.3,47.1,32.6,2.2,112
2010-12-03 13:46:55,16.6,-30.6,47.2,32.6,2.2,112
2010-12-03 13:51:55,16.3,-30.6,46.9,32.6,1.9,111
2010-12-03 13:56:55,15.9,-31.5,47.4,32.6,1.8,111
2010-12-03 14:01:55,15.3,-31.1,46.4,32.6,2.2,112
2010-12-03 14:06:55,14.6,-27.4,42.0,32.6,2.3,111
2010-12-03 14:11:55,13.5,-22.7,36.2,32.5,2.3,112
2010-12-03 14:16:55,12.3,-20.2,32.5,32.5,2.4,112
2010-12-03 14:21:55,11.6,-18.5,30.2,32.5,2.2,111
2010-12-03 14:26:55,11.3,-16.1,27.4,32.5,2.2,111
2010-12-03 14:31:55,11.3,-17.5,28.8,32.5,2.3,112
2010-12-03 14:36:55,11.5,-18.9,30.4,32.5,2.3,112
2010-12-03 14:41:55,11.8,-19.8,31.6,32.5,2.2,112
2010-12-03 14:46:55,12.0,-19.9,32.0,32.5,2.1,112
2010-12-03 14:51:55,12.1,-22.0,34.2,32.5,2.2,111
2010-12-03 14:56:55,12.4,-22.9,35.2,32.4,2.2,112
2010-12-03 15:01:55,11.8,-21.9,33.7,32.3,2.3,112
2010-12-03 15:06:55,11.2,-24.6,35.8,32.4,2.3,111
2010-12-03 15:11:55,10.9,-26.1,37.0,32.3,2.3,111
2010-12-03 15:16:55,10.5,-25.0,35.5,32.2,2.4,112
2010-12-03 15:21:55,10.4,-27.5,37.8,32.3,2.4,111
2010-12-03 15:26:55,10.5,-32.1,42.6,32.3,2.6,112
2010-12-03 15:31:55,10.8,-30.8,41.6,32.2,2.6,111
2010-12-03 15:36:55,10.6,-31.4,42.0,32.1,2.4,111
2010-12-03 15:41:55,10.3,-33.9,44.2,32.0,2.4,112
2010-12-03 15:46:55,9.9,-33.9,43.7,31.9,2.6,111
2010-12-03 15:51:55,9.5,-33.5,43.0,31.7,2.4,111
2010-12-03 15:56:55,9.3,-33.2,42.4,31.4,2.3,112
2010-12-03 16:01:55,9.1,-32.6,41.7,31.0,2.3,112
2010-12-03 16:06:55,9.3,-29.4,38.7,30.4,2.4,111
2010-12-03 16:11:55,9.6,-28.7,38.3,29.5,2.5,111
2010-12-03 16:16:55,9.9,-28.1,38.0,27.9,2.3,112
2010-12-03 16:21:55,10.3,-27.5,37.8,25.1,2.3,111
2010-12-03 16:26:55,10.5,-26.5,37.0,20.9,2.3,112
2010-12-03 16:31:55,10.9,-26.2,37.1,15.5,2.3,111
2010-12-03 16:36:55,11.3,-24.0,35.3,10.2,2.3,112
2010-12-03 16:41:55,11.3,-20.3,31.6,5.8,2.3,112
2010-12-03 16:46:55,11.3,-17.1,28.4,3.1,2.3,111
2010-12-03 16:51:55,11.4,-15.9,27.2,1.7,2.3,111
2010-12-03 16:56:55,11.3,-13.3,24.5,1.0,2.3,112
2010-12-03 17:01:55,11.2,-11.1,22.3,0.7,2.2,112
2010-12-03 17:06:55,11.5,-11.6,23.1,0.5,2.2,111
2010-12-03 17:11:55,11.8,-12.2,24.1,0.4,2.5,111
2010-12-03 17:16:55,12.3,-12.4,24.6,0.3,2.3,111
2010-12-03 17:21:55,12.5,-13.3,25.7,0.3,2.3,112
2010-12-03 17:26:55,12.4,-14.3,26.7,0.3,2.3,111
2010-12-03 17:31:55,12.4,-14.1,26.5,0.3,2.3,112
2010-12-03 17:36:55,12.4,-11.7,24.1,0.3,2.3,111
2010-12-03 17:41:55,12.5,-12.5,25.0,0.3,2.3,112
2010-12-03 17:46:55,12.6,-11.9,24.5,0.3,2.3,111
2010-12-03 17:51:55,12.7,-10.4,23.1,0.3,2.3,111
2010-12-03 17:56:55,12.7,-10.4,23.1,0.3,2.4,112
2010-12-03 18:01:55,12.7,-11.6,24.3,0.3,2.4,111
2010-12-03 18:06:55,12.7,-10.1,22.7,0.3,2.4,113
2010-12-03 18:11:55,12.9,-10.9,23.9,0.3,2.5,111
2010-12-03 18:16:55,13.0,-13.5,26.5,0.2,2.4,112
2010-12-03 18:21:55,12.9,-16.1,29.0,0.2,2.5,111
2010-12-03 18:26:55,12.9,-18.4,31.3,0.2,2.3,112
2010-12-03 18:31:55,13.0,-22.5,35.5,0.1,2.6,111
2010-12-03 18:36:55,13.1,-24.6,37.7,0.1,2.4,112
2010-12-03 18:41:55,13.0,-25.8,38.9,0.1,2.6,111
2010-12-03 18:46:55,13.0,-26.6,39.6,0.0,2.4,112
2010-12-03 18:51:55,13.0,-27.0,40.0,0.0,2.4,111
2010-12-03 18:56:55,12.9,-26.1,39.0,0.0,2.3,112
2010-12-03 19:01:55,13.0,-25.0,38.0,0.1,2.3,112
2010-12-03 19:06:55,12.9,-25.1,38.0,0.1,2.3,111
2010-12-03 19:11:55,12.8,-25.2,38.0,0.1,2.3,111
2010-12-03 19:16:55,12.8,-22.5,35.3,0.1,2.3,112
2010-12-03 19:21:55,12.9,-21.6,34.5,0.1,2.6,111
2010-12-03 19:26:55,13.1,-20.8,33.9,0.2,2.3,112
2010-12-03 19:31:55,13.2,-20.2,33.4,0.2,2.3,111
2010-12-03 19:36:55,13.3,-12.8,26.0,0.3,2.3,112
2010-12-03 19:41:55,13.4,-11.0,24.5,0.3,2.3,111
2010-12-03 19:46:55,13.1,-7.2,20.3,0.3,2.3,112
2010-12-03 19:51:55,10.8,-5.1,15.9,0.4,2.4,112
2010-12-03 19:56:55,9.9,-4.8,14.7,0.4,2.3,111
2010-12-03 20:01:55,9.8,-4.0,13.8,0.4,2.3,112
2010-12-03 20:06:55,9.8,-7.1,16.9,0.3,2.3,112
2010-12-03 20:11:55,9.9,-4.0,13.9,0.4,2.3,111
2010-12-03 20:16:55,9.9,-6.3,16.2,0.3,2.3,112
2010-12-03 20:21:55,10.0,-7.0,17.0,0.3,2.4,112
2010-12-03 20:26:55,12.3,-11.0,23.4,0.2,2.3,111
2010-12-03 20:31:55,13.0,-4.7,17.7,0.4,2.1,112
2010-12-03 20:36:55,11.1,-3.2,14.3,0.5,2.3,112
2010-12-03 20:41:55,10.7,-3.0,13.7,0.5,2.3,111
2010-12-03 20:46:55,10.7,-2.9,13.5,0.5,2.3,112
2010-12-03 20:51:55,10.7,-2.8,13.5,0.5,2.3,112
2010-12-03 20:56:55,10.8,-2.6,13.4,0.5,2.3,111
2010-12-03 21:01:55,10.9,-2.4,13.3,0.5,2.3,112
2010-12-03 21:06:55,11.0,-2.5,13.5,0.5,2.3,112
2010-12-03 21:11:55,11.2,-2.5,13.7,0.5,2.3,112
2010-12-03 21:16:55,11.3,-2.3,13.6,0.6,2.3,112
2010-12-03 21:21:55,11.4,-2.1,13.5,0.6,2.3,111
2010-12-03 21:26:55,11.5,-1.8,13.3,0.6,2.3,112
2010-12-03 21:31:55,11.6,-1.8,13.4,0.6,2.3,111
2010-12-03 21:36:55,11.7,-2.5,14.2,0.4,2.0,112
2010-12-03 21:41:55,11.8,-2.6,14.4,0.4,1.6,112
2010-12-03 21:46:55,11.9,-2.1,14.0,0.4,1.6,112
2010-12-03 21:51:55,11.9,-2.0,13.9,0.4,1.6,112
2010-12-03 21:56:55,12.0,-2.9,15.0,0.3,1.7,111
2010-12-03 22:01:55,12.1,-1.7,13.7,0.4,1.7,112
2010-12-03 22:06:55,12.1,-1.7,13.7,0.4,1.8,112
2010-12-03 22:11:55,12.1,-2.2,14.4,0.4,3.2,111
2010-12-03 22:16:55,12.0,-2.2,14.3,0.4,2.4,112
2010-12-03 22:21:55,11.8,-2.5,14.3,0.4,1.8,111
2010-12-03 22:26:55,11.9,-1.5,13.5,0.4,1.8,112
2010-12-03 22:31:55,12.0,-1.3,13.3,0.4,1.8,111
2010-12-03 22:36:55,12.0,-1.0,13.0,0.5,1.8,112
2010-12-03 22:41:55,12.1,-1.3,13.4,0.4,1.8,112
2010-12-03 22:46:55,12.0,-1.2,13.2,0.4,1.9,111
2010-12-03 22:51:55,12.0,-1.4,13.4,0.4,1.9,112
2010-12-03 22:56:55,12.0,-1.2,13.2,0.4,2.0,112
2010-12-03 23:01:55,12.1,-1.4,13.5,0.3,2.1,112
2010-12-03 23:06:55,12.1,-1.4,13.5,0.3,2.2,111
2010-12-03 23:11:56,12.1,-1.6,13.7,0.4,2.6,112
2010-12-03 23:16:56,12.1,-1.2,13.3,0.4,2.1,111
2010-12-03 23:21:56,12.1,-1.2,13.3,0.4,2.1,112
2010-12-03 23:26:56,12.2,-1.2,13.4,0.4,2.3,112
2010-12-03 23:31:56,12.2,-1.3,13.6,0.3,2.7,111
2010-12-03 23:36:56,12.1,-1.1,13.3,0.3,4.0,112
2010-12-03 23:41:56,12.1,-1.9,14.0,0.3,6.5,111
2010-12-03 23:46:56,12.0,-2.6,14.6,0.3,6.1,112
2010-12-03 23:51:56,11.9,-2.2,14.1,0.3,9.0,112
2010-12-03 23:56:56,11.9,-1.6,13.5,0.3,4.4,111
